Location: Góry Miechowskie
(50.3599°N, 20.1803°E)
Time: 03:52:22
(UTC+00:00)

SR - Pass Details

Date: 13 September 2024
Orbit: 578 x 855 km, 66.7° (Epoch: 04 October)

Event Time Altitude Azimuth Distance (km) Brightness Sun altitude
Rises 20:21:20 0° 323° (NW) 2,897 ? -29.1°
Reaches altitude 10° 20:23:32 10° 325° (NW) 2,020 ? -29.3°
Enters shadow 20:26:43 45° 336° (NNW) 892 ? -29.7°
